Hamilton, OH

4:33 PM EDT on October 19, 2017 (GMT -0400)
Butler County Regional

Weather History for KHAO - October, 2011

Change the Weather History Date:

Saturday, October 8, 2011

  Actual Average (KLUK) Record (KLUK)
Temperature  
Mean Temperature 64 °F -  
Max Temperature 82 °F 69 °F 91 °F (2007)
Min Temperature 46 °F 46 °F 33 °F (1974)
Degree Days  
Heating Degree Days 2    
Growing Degree Days 14 (Base 50)    
Moisture  
Dew Point 47 °F    
Average Humidity 79    
Maximum Humidity 87    
Minimum Humidity 39    
Precipitation  
Precipitation 0.00 in - - ()
Sea Level Pressure  
Sea Level Pressure 30.38 in    
Wind  
Wind Speed 0 mph (East)    
Max Wind Speed 4 mph    
Max Gust Speed -    
Visibility 5 miles    
Events      
Averages and records for this station are not official NWS values.
T = Trace of Precipitation, MM = Missing Value Source: NWS Daily Summary

Daily Weather History Graph

Daily Weather History Graph

Search for Another Location

Airport or City:

Trip Planner

Search our weather history database for the weather conditions in past years. The results will help you decide how hot, cold, wet, or windy it might be!

Date:

Astronomy

Oct. 08, 2011 Rise Set
Actual Time 7:40 AM EDT 7:10 PM EDT
Civil Twilight 7:13 AM EDT 7:36 PM EDT
Nautical Twilight 6:42 AM EDT 8:07 PM EDT
Astronomical Twilight 6:11 AM EDT 8:38 PM EDT
Moon 5:19 PM EDT (10/8) 4:28 AM EDT (10/8)
Length of Visible Light 12h 23m
Length of Day
11h 29m
Waxing Gibbous, 90% of the Moon is Illuminated
Oct 8
Waxing Gibbous
Oct 11
Full
Oct 19
Last Quarter
Oct 26
New
Nov 2
First Quarter

Hourly Weather History & Observations

Time (EDT) Temp. Heat Index Dew Point Humidity Pressure Visibility Wind Dir Wind Speed Gust Speed Precip Events Conditions
12:53 AM 51.1 °F - 46.0 °F 83% 30.36 in 6.0 mi Calm Calm - N/A   Haze
2:44 AM 48.2 °F - 44.6 °F 87% 30.36 in 1.8 mi Calm Calm - N/A   Clear
2:53 AM 48.9 °F - 45.0 °F 86% 30.36 in 3.0 mi Calm Calm - N/A   Clear
3:22 AM 48.2 °F - 44.6 °F 87% 30.36 in 2.0 mi Calm Calm - N/A   Haze
3:40 AM 48.2 °F - 44.6 °F 87% 30.36 in 4.0 mi Calm Calm - N/A   Haze
3:49 AM 48.2 °F - 44.6 °F 87% 30.36 in 1.8 mi Calm Calm - N/A   Haze
3:53 AM 48.9 °F - 44.1 °F 83% 30.35 in 1.8 mi Calm Calm - N/A   Haze
3:58 AM 48.2 °F - 44.6 °F 87% 30.35 in 3.0 mi Calm Calm - N/A   Clear
4:24 AM 48.2 °F - 44.6 °F 87% 30.35 in 2.5 mi Calm Calm - N/A   Clear
4:53 AM 48.0 °F - 44.1 °F 86% 30.36 in 2.5 mi Calm Calm - N/A   Clear
5:01 AM 48.2 °F - 44.6 °F 87% 30.36 in 4.0 mi Calm Calm - N/A   Clear
5:11 AM 48.2 °F - 42.8 °F 82% 30.36 in 1.8 mi Calm Calm - N/A   Haze
5:32 AM 48.2 °F - 44.6 °F 87% 30.36 in 3.0 mi Calm Calm - N/A   Clear
5:44 AM 46.4 °F - 42.8 °F 87% 30.36 in 2.0 mi Calm Calm - N/A   Clear
5:53 AM 46.9 °F - 43.0 °F 86% 30.37 in 1.8 mi Calm Calm - N/A   Clear
6:29 AM 46.4 °F - 42.8 °F 87% 30.38 in 1.0 mi Calm Calm - N/A   Clear
6:42 AM 46.4 °F - 42.8 °F 87% 30.38 in 1.8 mi Calm Calm - N/A   Clear
6:53 AM 46.9 °F - 43.0 °F 86% 30.39 in 2.5 mi Calm Calm - N/A   Clear
7:10 AM 46.4 °F - 42.8 °F 87% 30.40 in 4.0 mi Calm Calm - N/A   Clear
7:19 AM 46.4 °F - 42.8 °F 87% 30.40 in 2.5 mi Calm Calm - N/A   Clear
7:28 AM 46.4 °F - 42.8 °F 87% 30.40 in 4.0 mi Calm Calm - N/A   Clear
7:40 AM 46.4 °F - 42.8 °F 87% 30.41 in 1.8 mi Calm Calm - N/A   Clear
7:53 AM 46.9 °F - 43.0 °F 86% 30.42 in 1.2 mi Calm Calm - N/A   Clear
8:15 AM 48.2 °F - 44.6 °F 87% 30.42 in 1.8 mi Calm Calm - N/A   Mist
8:22 AM 48.2 °F - 44.6 °F 87% 30.42 in 3.0 mi Calm Calm - N/A   Mist
8:35 AM 51.8 °F - 46.4 °F 82% 30.42 in 2.5 mi Calm Calm - N/A   Clear
8:45 AM 53.6 °F - 48.2 °F 82% 30.43 in 3.0 mi Calm Calm - N/A   Haze
9:53 AM 63.0 °F - 53.1 °F 70% 30.44 in 6.0 mi Calm Calm - N/A   Haze
10:53 AM 70.0 °F - 54.0 °F 57% 30.43 in 10.0 mi Calm Calm - N/A   Clear
11:53 AM 73.0 °F - 55.0 °F 53% 30.43 in 10.0 mi Calm Calm - N/A   Clear
2:53 PM 81.0 °F 80.7 °F 55.0 °F 41% 30.36 in 10.0 mi Calm Calm - N/A   Clear
3:53 PM 81.0 °F 80.8 °F 55.9 °F 42% 30.35 in 10.0 mi Calm Calm - N/A   Clear
4:53 PM 81.0 °F 80.8 °F 55.9 °F 42% 30.34 in 10.0 mi Calm Calm - N/A   Clear
5:53 PM 81.0 °F 80.5 °F 54.0 °F 39% 30.33 in 10.0 mi Calm Calm - N/A   Clear
7:53 PM 64.0 °F - 55.0 °F 73% 30.35 in 10.0 mi Calm Calm - N/A   Clear
8:53 PM 60.1 °F - 54.0 °F 80% 30.36 in 10.0 mi Calm Calm - N/A   Clear
9:53 PM 57.0 °F - 52.0 °F 83% 30.36 in 10.0 mi Calm Calm - N/A   Clear
10:53 PM 57.9 °F - 52.0 °F 81% 30.37 in 8.0 mi East 3.5 mph - N/A   Clear
11:53 PM 57.0 °F - 51.1 °F 81% 30.36 in 10.0 mi Calm Calm - N/A   Clear